Pratt, KS

8:25 AM CDT on September 24, 2017 (GMT -0500)
Pratt Industrial

Weather History for KPTT - March, 2013

Change the Weather History Date:

Friday, March 1, 2013

  Actual Average (KP28) Record (KP28)
Temperature  
Mean Temperature 26 °F -  
Max Temperature 33 °F 49 °F 82 °F (2006)
Min Temperature 19 °F 25 °F 2 °F (1913)
Degree Days  
Heating Degree Days 39    
Moisture  
Dew Point 24 °F    
Average Humidity 92    
Maximum Humidity 100    
Minimum Humidity 80    
Precipitation  
Precipitation 0.00 in - - ()
Sea Level Pressure  
Sea Level Pressure 30.27 in    
Wind  
Wind Speed 7 mph (NNW)    
Max Wind Speed 21 mph    
Max Gust Speed 25 mph    
Visibility 7 miles    
Events      
Averages and records for this station are not official NWS values.
T = Trace of Precipitation, MM = Missing Value Source: NWS Daily Summary

Daily Weather History Graph

Daily Weather History Graph

Search for Another Location

Airport or City:

Trip Planner

Search our weather history database for the weather conditions in past years. The results will help you decide how hot, cold, wet, or windy it might be!

Date:

Astronomy

Mar. 01, 2013 Rise Set
Actual Time 7:06 AM CST 6:28 PM CST
Civil Twilight 6:39 AM CST 6:55 PM CST
Nautical Twilight 6:09 AM CST 7:25 PM CST
Astronomical Twilight 5:39 AM CST 7:56 PM CST
Moon 10:57 PM CST (3/1) 8:59 AM CST (3/1)
Length of Visible Light 12h 15m
Length of Day
11h 22m
Waning Gibbous, 83% of the Moon is Illuminated
Mar 1
Waning Gibbous
Mar 4
Last Quarter
Mar 11
New
Mar 19
First Quarter
Mar 27
Full

Hourly Weather History & Observations

Time (CST) Temp. Windchill Dew Point Humidity Pressure Visibility Wind Dir Wind Speed Gust Speed Precip Events Conditions
12:15 AM 21.2 °F 14.9 °F 21.2 °F 100% 30.21 in 7.0 mi North 4.6 mph - N/A   Mostly Cloudy
12:35 AM 21.2 °F 16.4 °F 21.2 °F 100% 30.21 in 5.0 mi North 3.5 mph - N/A   Mostly Cloudy
12:55 AM 21.2 °F 16.4 °F 21.2 °F 100% 30.21 in 5.0 mi NNW 3.5 mph - N/A   Scattered Clouds
1:15 AM 23.0 °F - 23.0 °F 100% 30.21 in 4.0 mi Calm Calm - N/A   Clear
1:35 AM 23.0 °F 17.0 °F 23.0 °F 100% 30.22 in 3.0 mi NW 4.6 mph - N/A   Clear
2:15 AM 21.2 °F 16.4 °F 21.2 °F 100% 30.21 in 4.0 mi NNW 3.5 mph - N/A   Overcast
2:35 AM 23.0 °F 13.1 °F 23.0 °F 100% 30.23 in 4.0 mi WNW 9.2 mph - N/A   Overcast
2:55 AM 23.0 °F 13.9 °F 21.2 °F 93% 30.23 in 5.0 mi WNW 8.1 mph - N/A   Overcast
3:15 AM 21.2 °F 14.9 °F 21.2 °F 100% 30.23 in 7.0 mi WNW 4.6 mph - N/A   Mostly Cloudy
3:35 AM 21.2 °F 13.6 °F 21.2 °F 100% 30.22 in 7.0 mi West 5.8 mph - N/A   Scattered Clouds
3:55 AM 23.0 °F 13.9 °F 21.2 °F 93% 30.22 in 7.0 mi WNW 8.1 mph - N/A   Mostly Cloudy
4:15 AM 23.0 °F 15.8 °F 23.0 °F 100% 30.21 in 7.0 mi NW 5.8 mph - N/A   Overcast
4:35 AM 23.0 °F 17.0 °F 23.0 °F 100% 30.21 in 7.0 mi WNW 4.6 mph - N/A   Overcast
4:55 AM 23.0 °F - 23.0 °F 100% 30.21 in 7.0 mi Calm Calm - N/A   Mostly Cloudy
5:15 AM 21.2 °F - 21.2 °F 100% 30.21 in 7.0 mi Calm Calm - N/A   Clear
5:35 AM 21.2 °F - 21.2 °F 100% 30.21 in 5.0 mi Calm Calm - N/A   Clear
5:55 AM 21.2 °F - 21.2 °F 100% 30.21 in 5.0 mi Calm Calm - N/A   Scattered Clouds
6:15 AM 23.0 °F 15.8 °F 23.0 °F 100% 30.21 in 5.0 mi NNE 5.8 mph - N/A   Clear
6:35 AM 21.2 °F 12.6 °F 21.2 °F 100% 30.21 in 5.0 mi North 6.9 mph - N/A   Clear
6:55 AM 19.4 °F 11.5 °F 19.4 °F 100% 30.22 in 4.0 mi NNE 5.8 mph - N/A   Clear
7:15 AM 19.4 °F 11.5 °F 19.4 °F 100% 30.23 in 2.5 mi North 5.8 mph - N/A   Scattered Clouds
7:35 AM 19.4 °F 14.3 °F 19.4 °F 100% 30.25 in 1.8 mi North 3.5 mph - N/A   Overcast
7:55 AM 21.2 °F 13.6 °F 19.4 °F 93% 30.26 in 2.5 mi NNW 5.8 mph - N/A   Overcast
8:15 AM 21.2 °F 13.6 °F 21.2 °F 100% 30.27 in 3.0 mi NNW 5.8 mph - N/A   Mostly Cloudy
8:35 AM 23.0 °F 15.8 °F 23.0 °F 100% 30.28 in 4.0 mi NNW 5.8 mph - N/A   Mostly Cloudy
8:55 AM 23.0 °F 15.8 °F 23.0 °F 100% 30.28 in 4.0 mi North 5.8 mph - N/A   Overcast
9:15 AM 26.6 °F 18.2 °F 26.6 °F 100% 30.28 in 4.0 mi North 8.1 mph - N/A   Overcast
9:35 AM 28.4 °F 20.4 °F 26.6 °F 93% 30.28 in 5.0 mi North 8.1 mph - N/A   Overcast
9:55 AM 28.4 °F 19.7 °F 28.4 °F 100% 30.28 in 5.0 mi North 9.2 mph - N/A   Overcast
10:15 AM 30.2 °F 21.3 °F 26.6 °F 86% 30.29 in 7.0 mi North 10.4 mph - N/A   Overcast
10:35 AM 32.0 °F 22.5 °F 26.6 °F 80% 30.30 in 7.0 mi North 12.7 mph - N/A   Overcast
10:55 AM 32.0 °F 21.6 °F 26.6 °F 80% 30.29 in 7.0 mi North 15.0 mph - N/A   Overcast
11:15 AM 32.0 °F 21.2 °F 26.6 °F 80% 30.29 in 7.0 mi North 16.1 mph - N/A   Overcast
11:35 AM 32.0 °F 22.1 °F 26.6 °F 80% 30.30 in 7.0 mi North 13.8 mph - N/A   Overcast
11:55 AM 32.0 °F 20.8 °F 26.6 °F 80% 30.30 in 10.0 mi North 17.3 mph - N/A   Overcast
12:15 PM 32.0 °F 21.2 °F 26.6 °F 80% 30.30 in 10.0 mi North 16.1 mph - N/A   Overcast
12:35 PM 32.0 °F 20.8 °F 28.4 °F 87% 30.30 in 10.0 mi NNW 17.3 mph - N/A   Overcast
12:55 PM 32.0 °F 21.2 °F 28.4 °F 87% 30.29 in 10.0 mi NNW 16.1 mph - N/A   Overcast
1:15 PM 32.0 °F 21.2 °F 28.4 °F 87% 30.29 in 10.0 mi NNW 16.1 mph - N/A   Overcast
1:35 PM 33.8 °F 22.2 °F 28.4 °F 81% 30.28 in 7.0 mi NNW 20.7 mph 25.3 mph N/A   Overcast
1:55 PM 33.8 °F 22.5 °F 28.4 °F 81% 30.28 in 10.0 mi North 19.6 mph - N/A   Overcast
2:15 PM 33.8 °F 22.8 °F 28.4 °F 81% 30.28 in 7.0 mi North 18.4 mph - N/A   Overcast
2:35 PM 33.8 °F 23.9 °F 28.4 °F 81% 30.27 in 10.0 mi North 15.0 mph - N/A   Overcast
2:55 PM 33.8 °F 23.5 °F 28.4 °F 81% 30.27 in 10.0 mi North 16.1 mph - N/A   Overcast
3:15 PM 32.0 °F 21.6 °F 28.4 °F 87% 30.27 in 10.0 mi North 15.0 mph - N/A   Mostly Cloudy
3:35 PM 33.8 °F 23.2 °F 28.4 °F 81% 30.27 in 10.0 mi North 17.3 mph - N/A   Overcast
3:55 PM 32.0 °F 20.8 °F 28.4 °F 87% 30.27 in 10.0 mi North 17.3 mph - N/A   Mostly Cloudy
4:15 PM 33.8 °F 23.5 °F 28.4 °F 81% 30.27 in 10.0 mi North 16.1 mph - N/A   Scattered Clouds
4:35 PM 32.0 °F 22.1 °F 28.4 °F 87% 30.27 in 10.0 mi North 13.8 mph - N/A   Scattered Clouds
4:55 PM 32.0 °F 20.8 °F 28.4 °F 87% 30.27 in 10.0 mi North 17.3 mph - N/A   Scattered Clouds
5:15 PM 32.0 °F 22.5 °F 28.4 °F 87% 30.27 in 10.0 mi North 12.7 mph - N/A   Clear
6:15 PM 30.2 °F 21.3 °F 26.6 °F 86% 30.29 in 10.0 mi North 10.4 mph - N/A   Clear
6:35 PM 30.2 °F 21.3 °F 26.6 °F 86% 30.30 in 10.0 mi North 10.4 mph - N/A   Clear
6:55 PM 28.4 °F 19.1 °F 26.6 °F 93% 30.30 in 10.0 mi North 10.4 mph - N/A   Clear
7:15 PM 28.4 °F 18.5 °F 24.8 °F 86% 30.31 in 10.0 mi North 11.5 mph - N/A   Clear
7:35 PM 28.4 °F 20.4 °F 24.8 °F 86% 30.31 in 10.0 mi NNE 8.1 mph - N/A   Clear
7:55 PM 26.6 °F 19.1 °F 23.0 °F 86% 30.31 in 10.0 mi North 6.9 mph - N/A   Clear
8:15 PM 24.8 °F 17.9 °F 23.0 °F 93% 30.32 in 10.0 mi NNW 5.8 mph - N/A   Clear
8:35 PM 24.8 °F - 21.2 °F 86% 30.32 in 10.0 mi Calm Calm - N/A   Mostly Cloudy
8:55 PM 24.8 °F - 21.2 °F 86% 30.32 in 10.0 mi Calm Calm - N/A   Mostly Cloudy
9:15 PM 23.0 °F - 21.2 °F 93% 30.33 in 10.0 mi Calm Calm - N/A   Scattered Clouds
9:35 PM 23.0 °F - 21.2 °F 93% 30.34 in 7.0 mi Calm Calm - N/A   Scattered Clouds
9:55 PM 23.0 °F 13.9 °F 21.2 °F 93% 30.34 in 10.0 mi NNW 8.1 mph - N/A   Clear
10:15 PM 21.2 °F 12.6 °F 21.2 °F 100% 30.34 in 7.0 mi North 6.9 mph - N/A   Clear
10:55 PM 21.2 °F 10.9 °F 19.4 °F 93% 30.34 in 7.0 mi North 9.2 mph - N/A   Clear
11:15 PM 21.2 °F 13.6 °F 19.4 °F 93% 30.33 in 7.0 mi North 5.8 mph - N/A   Clear
11:35 PM 19.4 °F - 19.4 °F 100% 30.34 in 7.0 mi Calm Calm - N/A   Clear
11:55 PM 19.4 °F - 19.4 °F 100% 30.34 in 5.0 mi Calm Calm - N/A   Clear